Temperature
17 16 16 17 18 19 18 19 19 19 20 20 19 19 19 20 20 19 20 20 21 21 22 21 21 20 20 20 19 19 18 18 17 16 16 15 15 14 14 13 13 13 13 13
17 17 18 18 19 19 19 19 19 19 20 20 19 19 19 19 19 20 20 20 21 21 21 21 21 21 20 20 19 19 18 18 17 16 16 15 14 14 14 13 13 13 13 13
17 18 19 19 19 19 19 19 20 20 20 19 20 20 20 20 20 21 21 21 21 21 22 21 21 21 20 20 20 19 19 18 17 16 16 15 14 14 14 13 13 13 13 12
18 19 19 19 19 19 19 20 20 20 19 18 19 19 19 18 19 20 20 21 21 22 22 22 21 21 21 21 20 19 19 18 17 16 16 15 15 14 14 13 13 13 13 13
18 18 19 19 20 19 19 19 19 19 19 18 18 18 18 18 20 20 20 21 22 23 22 22 22 22 21 21 20 19 19 18 17 17 16 15 15 14 14 13 13 13 13 13
19 19 19 20 20 20 20 19 18 16 16 18 18 18 19 18 20 20 20 22 23 23 23 22 22 21 21 20 20 19 19 18 17 17 16 15 15 14 14 14 13 13 13 13
20 20 20 20 20 20 19 18 17 18 17 18 18 18 18 19 19 19 20 22 23 23 23 23 22 22 21 21 20 19 19 18 18 17 16 16 15 14 14 14 13 13 13 13
20 20 21 21 21 20 19 18 17 18 18 17 17 18 19 19 20 21 21 22 23 23 23 23 23 22 22 21 21 20 19 19 18 17 17 16 15 15 14 14 14 13 13 13
19 20 21 22 21 20 19 17 17 16 17 17 17 18 19 20 20 20 21 21 22 23 23 23 23 22 22 21 21 20 20 19 18 18 17 16 15 15 14 14 14 14 13 13
19 21 21 22 21 20 19 16 15 16 17 17 18 18 18 20 19 19 18 20 21 22 22 23 23 22 22 21 21 20 19 19 18 18 17 16 16 15 14 14 14 14 13 13
20 20 20 21 21 21 20 18 15 14 15 16 18 18 18 18 18 17 17 19 20 21 22 22 22 22 22 21 20 20 19 19 18 18 17 17 16 15 15 14 14 14 14 13
18 17 18 20 20 20 21 19 16 17 16 15 16 17 18 17 16 17 17 18 20 20 21 21 21 21 21 21 20 20 19 19 19 18 17 17 16 16 15 15 14 14 14 14
18 17 18 19 19 20 20 19 17 15 14 14 16 18 17 16 17 17 17 18 19 20 20 21 21 21 21 20 20 20 20 19 19 18 17 17 16 16 16 15 14 14 14 14
17 17 18 18 18 19 20 20 17 16 15 15 16 17 17 16 16 16 17 17 18 19 19 20 20 20 20 20 20 20 20 19 19 18 18 17 17 16 16 15 15 14 14 14
17 18 19 19 19 19 20 20 18 18 16 16 17 16 16 15 15 16 16 17 18 18 18 19 19 19 20 20 20 20 20 20 19 18 18 18 17 17 16 16 15 15 14 14
15 18 19 19 19 18 19 18 18 18 17 16 16 16 16 16 15 15 16 16 17 17 17 18 18 19 19 19 20 20 20 19 19 19 18 18 17 17 16 16 16 15 15 15
14 16 17 17 17 19 18 18 17 17 17 16 16 16 15 15 15 15 15 16 16 16 17 17 17 18 18 18 19 19 19 19 19 18 18 18 17 17 16 16 16 15 15 15
14 14 13 15 18 18 17 17 17 16 16 15 15 15 14 15 15 15 15 16 16 16 16 16 17 17 17 18 18 18 18 18 18 18 18 17 17 17 17 16 16 16 16 15
13 13 13 13 16 16 17 17 17 17 16 15 14 14 15 15 15 15 15 15 15 15 15 16 16 16 17 17 17 17 17 17 17 17 17 17 17 17 17 17 16 16 16 16
12 12 12 13 16 16 17 17 17 17 16 15 14 14 14 14 13 13 15 15 15 15 15 15 15 16 16 16 16 16 16 16 16 16 16 16 16 17 17 17 17 16 16 16
13 13 13 13 15 15 15 16 17 16 16 16 15 15 15 14 14 15 15 15 14 14 14 14 14 14 14 14 15 15 15 15 15 15 16 16 16 16 17 17 17 17 16 16
13 12 12 11 14 15 16 15 15 15 16 16 16 15 15 15 15 14 14 14 14 14 14 14 14 13 13 13 14 14 14 14 14 14 15 15 16 16 16 16 16 16 16 16
11 12 11 12 13 14 15 15 16 16 16 16 16 15 15 15 14 14 14 13 13 13 13 13 13 13 13 12 12 13 13 13 13 14 14 14 15 15 15 15 16 16 16 16
11 11 11 11 12 14 15 16 16 16 16 16 15 15 15 14 14 13 13 13 12 12 12 12 12 12 12 12 12 11 12 12 12 12 13 13 14 14 14 14 14 15 15 15
11 11 10 11 11 13 14 15 15 15 15 15 15 14 14 14 13 13 12 12 12 12 12 11 11 11 11 11 11 11 11 11 11 11 12 12 12 13 13 14 14 14 14 14
8 10 11 11 13 12 14 15 15 14 14 14 14 14 13 13 13 12 12 12 11 11 11 11 11 10 10 10 10 10 10 10 10 10 10 11 11 12 12 12 13 14 14 14
Wind_Speed
3 5 4 6 4 3 4 3 1 2 1 2 5 9 11 5 5 7 8 9 10 11 7 6 6 7 7 7 7 7 7 6 4 3 2 2 0 1 1 2 3 3 3 4
5 1 4 5 4 4 3 2 0 2 0 2 4 7 8 4 4 6 8 9 9 7 6 6 7 8 8 9 8 8 7 7 5 3 2 2 1 1 1 2 2 3 3 4
5 3 4 4 3 2 1 2 1 1 3 4 4 8 6 5 4 2 3 5 6 9 10 9 8 9 8 9 10 9 8 7 5 4 3 3 3 2 2 2 2 3 3 3
2 2 4 3 2 4 1 3 2 1 3 4 4 3 7 7 8 5 3 3 6 7 8 8 9 9 10 10 9 8 8 6 5 5 4 4 3 2 3 2 2 3 3 3
2 4 4 3 4 6 2 2 3 2 3 3 5 3 8 6 6 7 6 4 5 6 8 10 10 10 9 8 8 8 7 6 5 5 5 4 3 2 1 1 2 3 3 3
2 3 4 4 1 4 3 5 6 6 5 4 4 2 5 4 5 7 7 6 5 5 6 8 7 6 7 7 7 7 8 7 6 6 5 5 5 4 2 2 2 2 3 3
2 0 2 3 3 3 4 5 5 6 5 2 4 1 5 6 5 5 7 8 6 3 4 6 8 8 8 9 9 8 9 8 7 6 6 6 6 5 5 4 3 3 2 2
4 1 3 3 5 5 4 7 6 4 2 3 5 1 6 6 6 4 4 5 5 4 3 6 8 8 9 10 10 10 10 9 8 7 7 6 5 4 4 4 4 4 3 4
6 2 2 2 3 8 6 3 5 7 3 3 5 6 8 6 9 9 9 8 7 6 5 5 6 7 8 9 10 11 11 9 8 8 7 6 6 6 5 5 4 4 4 3
7 4 3 1 6 6 5 8 6 5 4 2 5 4 4 7 8 9 9 9 9 8 6 5 4 5 6 7 7 7 9 9 8 8 7 6 6 6 5 4 5 5 4 3
3 5 3 4 2 3 4 5 6 5 5 6 1 5 4 5 5 7 8 8 9 9 8 6 4 3 3 4 5 7 8 8 7 8 8 7 7 6 5 5 6 5 4 4
3 5 2 2 3 1 3 6 6 5 3 4 4 5 4 3 4 4 6 8 8 8 7 6 5 3 1 2 4 6 8 8 9 8 8 8 7 6 6 6 6 5 5 5
5 6 4 5 6 5 4 4 5 6 6 5 4 5 3 5 5 5 6 8 8 9 9 8 7 5 4 3 3 5 7 9 8 8 8 8 7 8 8 8 6 6 6 5
5 5 6 7 6 2 0 2 5 5 4 5 6 5 5 5 6 7 8 8 8 9 10 10 9 8 6 5 4 4 6 7 8 8 9 10 10 10 9 8 7 7 6 6
5 4 2 2 1 1 2 3 5 6 7 8 6 5 5 2 2 3 5 8 10 11 12 12 11 9 9 8 6 5 5 5 7 8 10 11 10 9 8 8 8 7 7 7
5 4 3 1 2 1 3 4 4 4 4 5 3 3 2 1 2 5 6 8 9 9 10 11 11 11 11 10 8 6 5 4 5 8 10 9 8 8 9 9 8 7 7 7
3 4 3 2 4 3 4 4 4 3 2 5 5 5 3 3 4 4 4 6 7 7 8 10 10 10 10 10 8 7 6 3 3 6 7 7 8 9 10 9 8 9 9 7
5 5 4 2 2 4 5 1 4 5 2 1 2 3 4 4 4 3 3 4 5 6 7 8 9 9 9 9 9 7 6 3 3 4 6 6 7 10 9 9 10 10 8 8
4 6 5 4 2 4 4 1 3 4 1 0 3 4 3 3 3 3 4 3 3 4 4 5 6 6 8 10 10 8 7 6 5 5 6 7 7 9 9 11 12 10 8 9
5 5 6 4 4 5 6 2 1 4 1 2 4 5 4 4 2 2 2 2 3 5 5 6 6 7 9 10 9 9 9 8 8 8 8 7 6 8 11 12 12 9 9 10
4 3 4 4 4 6 5 3 3 4 5 3 4 4 5 4 4 3 1 2 3 4 5 5 6 7 8 8 8 9 9 9 10 9 8 7 6 7 9 10 9 8 9 9
6 6 5 5 4 7 2 4 5 5 2 4 4 3 4 3 2 1 1 1 3 4 5 6 6 7 7 7 7 8 9 10 10 9 8 8 7 6 6 7 7 8 9 9
5 7 6 7 6 3 1 3 2 4 4 3 4 3 4 3 2 1 1 0 2 3 4 4 5 6 7 7 6 8 9 10 10 10 10 9 8 6 6 6 7 6 7 9
3 3 4 3 5 3 2 2 1 3 3 3 3 4 4 3 3 2 2 2 2 3 3 3 4 6 7 8 7 7 9 9 9 10 10 9 9 8 7 5 5 6 7 8
6 4 3 4 5 3 4 4 3 2 2 3 3 3 4 4 3 3 2 3 3 3 3 3 3 5 7 7 8 8 8 8 8 9 9 9 8 8 7 6 6 8 9 10
6 8 8 8 7 6 6 5 4 4 4 4 4 3 3 4 4 3 3 4 4 4 4 4 5 5 7 7 8 8 8 7 7 8 8 8 8 8 7 7 8 9 11 14
Wind_Direction
103 94 157 189 183 146 137 138 197 269 217 187 249 274 285 275 226 230 227 220 221 227 228 198 182 169 162 162 165 165 159 159 145 130 129 124 177 322 338 333 340 352 360 2
78 151 191 146 138 114 113 113 305 312 278 200 291 292 293 277 235 231 228 223 219 216 210 200 184 176 177 176 177 176 175 172 175 158 148 156 156 210 268 311 334 346 356 353
142 188 147 135 129 114 90 169 197 329 10 33 354 339 339 331 323 293 238 219 210 209 209 201 193 191 185 186 186 188 183 179 177 153 114 86 62 32 4 336 325 333 345 347
125 143 141 139 155 144 268 241 186 64 57 355 33 348 319 330 338 343 317 246 225 219 208 201 195 194 197 196 186 184 178 178 177 163 162 157 163 194 231 248 285 315 338 342
163 157 154 185 203 169 203 42 102 82 102 39 22 64 307 344 348 327 315 280 250 226 211 207 203 201 197 185 179 179 173 180 180 176 175 170 178 202 234 267 298 319 330 330
154 177 183 195 209 163 132 68 60 49 68 50 344 75 305 307 297 310 321 312 278 246 224 218 208 190 184 175 174 173 176 189 185 182 181 186 192 194 208 245 273 299 310 313
39 274 218 168 107 73 93 86 44 26 29 296 313 105 264 282 291 286 303 308 301 273 229 217 205 196 189 183 182 180 182 194 191 189 194 200 202 197 206 220 232 250 276 284
121 281 234 182 166 148 139 130 141 147 177 299 353 328 272 286 310 318 321 322 328 308 257 232 220 209 201 194 187 184 191 198 192 196 203 202 202 200 213 218 218 230 238 254
152 232 308 188 154 127 123 112 145 122 113 45 335 322 319 342 357 360 359 354 338 320 300 267 244 221 208 201 198 194 194 199 198 201 199 201 206 207 216 221 224 234 242 250
141 116 7 52 77 47 116 135 98 97 116 57 334 328 297 321 332 340 346 340 334 337 331 310 274 241 222 211 202 195 198 204 203 198 200 205 208 212 216 214 225 235 243 246
114 114 15 50 94 154 104 86 94 94 129 136 182 283 256 273 303 318 324 332 332 333 333 329 319 283 233 212 200 200 203 206 205 204 204 205 208 210 209 215 227 231 237 235
106 108 78 303 301 253 136 145 141 135 158 142 152 260 301 301 318 331 336 341 345 346 344 344 347 353 331 236 220 213 209 210 212 206 203 209 208 204 209 222 229 225 231 235
124 103 80 3 349 8 68 105 113 115 112 139 156 252 330 12 9 7 2 357 1 4 6 7 5 356 329 285 249 231 221 218 211 199 203 209 208 208 215 223 227 221 223 231
105 97 149 179 210 222 46 130 137 124 138 181 209 233 308 344 360 1 6 6 10 12 13 12 6 355 337 311 278 253 241 224 210 201 205 212 215 213 216 219 221 218 216 220
81 105 136 186 205 183 232 225 176 176 180 180 211 207 255 280 335 1 14 20 23 17 13 9 2 354 350 343 321 288 263 233 214 206 212 221 219 215 214 217 219 217 215 220
55 108 90 22 31 349 271 268 213 197 178 179 171 231 233 134 82 48 36 33 27 15 8 4 2 359 353 346 335 315 293 259 216 215 224 226 217 215 216 218 216 215 218 219
56 114 114 248 317 3 283 260 186 168 168 161 189 218 168 121 88 64 43 38 28 13 6 4 0 354 347 340 335 329 311 290 235 233 237 231 221 221 222 219 212 215 217 212
131 111 122 135 71 229 245 322 146 128 100 172 178 169 162 154 137 85 55 44 27 13 7 360 355 353 349 347 349 345 349 341 291 270 263 250 234 231 227 217 218 219 212 209
142 131 118 123 171 281 291 223 159 143 133 232 152 139 131 135 86 27 20 29 26 10 3 352 348 348 353 358 354 359 1 354 338 311 291 275 250 241 230 224 226 220 210 213
73 92 113 130 165 233 243 267 231 115 282 248 156 152 148 114 88 276 323 9 17 13 5 359 355 4 8 358 357 7 0 355 340 318 302 293 272 252 240 233 229 219 212 218
94 89 129 155 205 257 255 276 110 146 244 205 167 168 155 168 199 220 294 20 16 10 1 1 5 6 354 347 358 3 358 347 326 316 311 303 289 270 255 244 231 218 215 217
168 157 172 152 187 246 249 117 158 202 186 155 155 158 160 178 180 159 103 29 11 4 357 357 3 354 344 346 356 354 343 329 328 326 323 315 303 294 287 257 240 223 213 216
194 188 184 187 205 234 228 191 206 165 157 170 164 167 152 157 186 201 199 318 337 342 342 344 350 345 341 341 346 340 326 327 331 336 332 324 315 303 299 277 253 235 219 222
258 166 156 234 251 243 260 247 195 166 174 181 173 165 157 173 194 206 226 267 293 308 318 328 343 343 334 331 331 321 317 324 332 332 331 329 323 313 304 296 271 246 233 231
229 175 178 246 262 270 252 229 210 192 158 150 154 173 181 179 206 219 236 254 270 288 297 308 316 315 311 316 320 319 320 327 330 328 326 327 325 314 306 294 277 261 245 234
205 184 182 220 215 197 233 229 199 183 193 191 184 193 205 199 213 225 238 249 259 273 281 289 294 295 298 306 310 311 314 321 324 325 325 322 321 316 309 304 302 280 263 257
Height
1494 1499 1504 1502 1501 1502 1505 1508 1510 1506 1501 1503 1505 1503 1497 1494 1495 1495 1495 1496 1498 1500 1503 1506 1508 1510 1512 1514 1516 1517 1518 1519 1519 1518 1518 1517 1517 1517 1516 1515 1514 1513 1512 1510
1498 1501 1498 1498 1499 1501 1504 1508 1509 1506 1502 1503 1505 1503 1495 1493 1493 1492 1492 1493 1495 1498 1501 1503 1506 1508 1510 1512 1514 1516 1517 1518 1518 1518 1518 1517 1517 1516 1516 1515 1514 1513 1511 1510
1499 1498 1496 1498 1501 1503 1505 1508 1507 1507 1504 1504 1506 1506 1499 1494 1492 1491 1491 1493 1494 1496 1498 1500 1503 1505 1508 1510 1512 1514 1516 1517 1517 1517 1517 1516 1516 1515 1515 1515 1514 1513 1511 1510
1496 1495 1497 1499 1501 1503 1509 1502 1504 1506 1512 1519 1514 1525 1507 1502 1495 1492 1491 1492 1493 1494 1496 1498 1500 1503 1505 1508 1511 1513 1515 1516 1516 1516 1516 1516 1515 1515 1515 1514 1513 1513 1512 1510
1497 1496 1498 1500 1499 1500 1503 1501 1504 1507 1513 1521 1520 1525 1518 1505 1501 1496 1492 1492 1492 1493 1495 1496 1498 1501 1504 1506 1509 1511 1513 1514 1515 1515 1515 1515 1515 1515 1514 1514 1513 1512 1512 1511
1495 1494 1495 1496 1495 1497 1500 1505 1510 1516 1522 1532 1526 1528 1524 1512 1504 1499 1494 1492 1492 1493 1494 1495 1497 1500 1502 1505 1507 1509 1511 1513 1514 1514 1514 1514 1514 1514 1513 1513 1513 1512 1511 1511
1498 1495 1493 1493 1497 1499 1503 1516 1531 1534 1540 1537 1526 1526 1524 1506 1502 1499 1496 1494 1493 1493 1493 1494 1496 1497 1500 1502 1505 1507 1509 1510 1512 1512 1513 1513 1513 1513 1513 1512 1512 1511 1511 1510
1504 1507 1494 1492 1495 1501 1505 1512 1531 1540 1542 1539 1529 1528 1516 1503 1500 1497 1496 1494 1493 1493 1493 1494 1495 1496 1498 1500 1502 1505 1507 1508 1510 1511 1511 1512 1512 1512 1512 1512 1511 1511 1510 1510
1503 1503 1491 1489 1490 1495 1505 1513 1515 1530 1535 1542 1535 1525 1511 1500 1499 1497 1496 1495 1494 1494 1493 1493 1494 1495 1497 1498 1500 1502 1504 1506 1508 1509 1510 1510 1510 1510 1511 1511 1510 1510 1510 1509
1493 1500 1494 1490 1491 1495 1499 1509 1520 1530 1543 1547 1538 1532 1527 1510 1506 1502 1499 1497 1496 1494 1493 1493 1493 1494 1495 1497 1499 1501 1502 1504 1506 1507 1508 1508 1509 1509 1509 1509 1509 1509 1509 1509
1489 1500 1500 1495 1498 1500 1504 1511 1522 1532 1534 1547 1546 1539 1516 1512 1508 1505 1502 1500 1498 1495 1494 1493 1492 1493 1493 1495 1496 1498 1500 1501 1503 1504 1505 1506 1507 1507 1507 1507 1508 1508 1507 1507
1492 1502 1510 1502 1496 1495 1497 1505 1515 1527 1534 1539 1543 1538 1510 1509 1507 1505 1503 1500 1498 1496 1494 1493 1492 1492 1492 1492 1494 1495 1496 1498 1500 1502 1503 1504 1504 1504 1505 1505 1506 1506 1506 1506
1491 1502 1517 1515 1511 1502 1501 1504 1510 1519 1532 1541 1542 1531 1510 1508 1507 1505 1503 1501 1499 1497 1495 1493 1492 1492 1491 1491 1491 1492 1493 1494 1496 1498 1499 1500 1501 1501 1502 1503 1503 1504 1504 1504
1489 1502 1512 1520 1515 1505 1504 1505 1509 1516 1529 1534 1530 1522 1514 1510 1508 1506 1504 1502 1500 1498 1496 1494 1493 1492 1491 1490 1489 1489 1490 1490 1492 1493 1495 1496 1497 1498 1499 1500 1500 1501 1501 1502
1490 1502 1501 1503 1501 1502 1503 1504 1507 1510 1515 1522 1518 1518 1513 1511 1509 1508 1506 1503 1501 1499 1497 1496 1494 1493 1491 1489 1488 1487 1487 1487 1488 1489 1490 1491 1493 1494 1495 1496 1497 1498 1498 1499
1495 1502 1502 1504 1503 1504 1505 1503 1505 1507 1509 1512 1514 1514 1509 1509 1508 1507 1506 1505 1503 1502 1500 1498 1496 1493 1491 1489 1487 1485 1484 1484 1484 1484 1485 1487 1489 1490 1491 1492 1493 1494 1494 1495
1502 1504 1510 1514 1510 1505 1511 1503 1503 1505 1505 1508 1512 1510 1507 1508 1508 1508 1507 1506 1505 1504 1502 1499 1497 1495 1492 1490 1487 1485 1483 1482 1481 1481 1482 1483 1484 1485 1486 1487 1488 1489 1490 1491
1502 1508 1516 1518 1512 1518 1509 1499 1499 1502 1504 1504 1504 1505 1505 1506 1508 1508 1508 1507 1506 1504 1502 1500 1498 1496 1493 1491 1488 1485 1483 1481 1479 1479 1478 1478 1479 1479 1480 1481 1482 1483 1485 1485
1499 1506 1517 1522 1520 1516 1505 1498 1499 1501 1505 1503 1503 1504 1505 1506 1507 1508 1508 1507 1506 1505 1503 1501 1499 1496 1493 1490 1487 1485 1482 1480 1478 1476 1475 1474 1474 1474 1474 1475 1476 1477 1479 1480
1502 1504 1515 1521 1517 1519 1505 1496 1495 1499 1506 1502 1502 1503 1504 1505 1510 1510 1508 1507 1505 1504 1503 1500 1498 1495 1492 1489 1487 1484 1481 1478 1476 1474 1472 1471 1469 1468 1468 1468 1469 1471 1472 1474
1507 1510 1515 1519 1517 1510 1498 1494 1496 1509 1507 1500 1500 1501 1503 1504 1506 1507 1506 1505 1504 1503 1501 1499 1496 1494 1491 1488 1485 1482 1480 1477 1474 1472 1469 1467 1465 1463 1462 1462 1462 1464 1465 1467
1505 1510 1514 1518 1517 1511 1495 1494 1499 1500 1497 1497 1499 1500 1502 1503 1504 1504 1504 1503 1502 1501 1499 1497 1494 1492 1490 1487 1484 1480 1477 1475 1472 1469 1466 1463 1460 1459 1457 1456 1456 1456 1457 1459
1500 1500 1502 1504 1502 1495 1492 1493 1494 1494 1495 1496 1497 1499 1500 1501 1501 1501 1501 1501 1500 1498 1497 1495 1492 1490 1487 1485 1481 1478 1475 1472 1469 1465 1462 1459 1456 1454 1452 1450 1449 1449 1450 1450
1496 1494 1497 1497 1493 1491 1491 1491 1492 1493 1493 1494 1495 1497 1498 1498 1498 1499 1498 1498 1497 1495 1494 1492 1489 1487 1484 1482 1479 1476 1472 1469 1465 1461 1458 1455 1451 1448 1447 1445 1444 1443 1442 1443
1491 1492 1494 1494 1490 1489 1488 1489 1490 1491 1491 1492 1493 1494 1495 1495 1495 1495 1495 1494 1493 1492 1490 1488 1486 1484 1481 1478 1475 1472 1469 1465 1461 1458 1454 1451 1447 1444 1441 1439 1438 1436 1436 1436
1485 1486 1489 1488 1483 1485 1484 1486 1487 1488 1489 1490 1490 1491 1492 1492 1492 1492 1491 1490 1489 1488 1486 1484 1482 1480 1477 1474 1471 1468 1465 1461 1457 1453 1450 1446 1443 1439 1436 1433 1430 1429 1429 1428